| time (UTC) | temp F | wind direction | speed knots | gust knots | rain 1hr in | rain 24hr in | rain mn in | humidity % | barometer mb |
| 20260831181550 | 88 | 56 | 0.0 | 3.5 | 0.00 | 0.00 | 0.00 | 64 | 1019.7 |
| 20260831180048 | 89 | 11 | 1.7 | 4.3 | 0.00 | 0.00 | 0.00 | 64 | 1019.8 |
| 20260831174549 | 88 | 242 | 0.0 | 3.5 | 0.00 | 0.00 | 0.00 | 64 | 1019.9 |
| 20260831173055 | 87 | 250 | 0.9 | 4.3 | 0.00 | 0.00 | 0.00 | 66 | 1020.1 |
| 20260831171540 | 87 | 59 | 0.9 | 3.5 | 0.00 | 0.00 | 0.00 | 68 | 1020.4 |
| 20260831170039 | 86 | 59 | 1.7 | 4.3 | 0.00 | 0.00 | 0.00 | 68 | 1020.5 |
| 20260831164539 | 86 | 181 | 0.9 | 7.0 | 0.00 | 0.00 | 0.00 | 69 | 1020.5 |
| 20260831163038 | 86 | 108 | 0.0 | 4.3 | 0.00 | 0.00 | 0.00 | 69 | 1020.5 |
| 20260831161533 | 85 | 82 | 0.9 | 4.3 | 0.00 | 0.00 | 0.00 | 72 | 1020.6 |
| 20260831160031 | 84 | 11 | 0.0 | 2.6 | 0.00 | 0.00 | 0.00 | 71 | 1020.6 |
| 20260831154529 | 84 | 284 | 1.7 | 4.3 | 0.00 | 0.00 | 0.00 | 73 | 1020.7 |
| 20260831153025 | 83 | 211 | 0.9 | 6.1 | 0.00 | 0.00 | 0.00 | 77 | 1020.7 |
| 20260831151523 | 82 | 61 | 0.9 | 7.8 | 0.00 | 0.00 | 0.00 | 80 | 1020.6 |
| 20260831150019 | 80 | 64 | 0.9 | 4.3 | 0.00 | 0.00 | 0.00 | 83 | 1020.6 |
| 20260831144527 | 81 | 45 | 0.0 | 7.8 | 0.00 | 0.00 | 0.00 | 85 | 1020.6 |
| 20260831143014 | 77 | 39 | 0.0 | 2.6 | 0.00 | 0.00 | 0.00 | 93 | 1020.6 |
| 20260831141511 | 77 | 39 | 0.0 | 2.6 | 0.00 | 0.00 | 0.00 | 95 | 1020.6 |
| 20260831140009 | 76 | 39 | 0.0 | 2.6 | 0.00 | 0.00 | 0.00 | 96 | 1020.6 |
| 20260831134509 | 76 | 19 | 0.9 | 3.5 | 0.00 | 0.00 | 0.00 | 97 | 1020.6 |
| 20260831133007 | 76 | 19 | 0.0 | 2.6 | 0.00 | 0.00 | 0.00 | 98 | 1020.5 |
| 20260831131504 | 75 | 22 | 0.9 | 3.5 | 0.00 | 0.00 | 0.00 | 98 | 1020.5 |
| 20260831130112 | 74 | 24 | 0.0 | 2.6 | 0.00 | 0.00 | 0.00 | 98 | 1020.5 |
| 20260831124559 | 73 | 24 | 0.0 | 2.6 | 0.00 | 0.00 | 0.00 | 98 | 1020.5 |
| 20260831123055 | 71 | 24 | 0.0 | 0.9 | 0.00 | 0.00 | 0.00 | 97 | 1020.3 |
| 20260831121554 | 70 | 24 | 0.0 | 0.0 | 0.00 | 0.00 | 0.00 | 96 | 1020.3 |
| 20260831120053 | 69 | 24 | 0.0 | 0.0 | 0.00 | 0.00 | 0.00 | 96 | 1020.3 |
| 20260831114551 | 69 | 24 | 0.0 | 0.0 | 0.00 | 0.00 | 0.00 | 96 | 1020.1 |
| 20260831113052 | 69 | 24 | 0.0 | 0.0 | 0.00 | 0.00 | 0.00 | 96 | 1020.2 |
| 20260831111608 | 69 | 24 | 0.0 | 0.0 | 0.00 | 0.00 | 0.00 | 96 | 1020.1 |
| 20260831110124 | 69 | 24 | 0.0 | 0.0 | 0.00 | 0.00 | 0.00 | 95 | 1020.0 |
| 20260831104549 | 69 | 24 | 0.0 | 0.0 | 0.00 | 0.00 | 0.00 | 95 | 1019.8 |
| 20260831103054 | 69 | 24 | 0.0 | 0.0 | 0.00 | 0.00 | 0.00 | 95 | 1019.9 |
| 20260831101547 | 69 | 24 | 0.0 | 0.0 | 0.00 | 0.00 | 0.00 | 95 | 1020.0 |
| 20260831100054 | 69 | 24 | 0.0 | 0.0 | 0.00 | 0.00 | 0.00 | 94 | 1019.8 |
| 20260831094545 | 70 | 24 | 0.0 | 0.0 | 0.00 | 0.00 | 0.00 | 94 | 1019.9 |
| 20260831093044 | 70 | 24 | 0.0 | 0.0 | 0.00 | 0.00 | 0.00 | 95 | 1019.9 |
| 20260831091550 | 70 | 24 | 0.0 | 0.0 | 0.00 | 0.00 | 0.00 | 94 | 1019.7 |
| 20260831090043 | 70 | 24 | 0.0 | 0.0 | 0.00 | 0.00 | 0.00 | 94 | 1019.7 |
| 20260831084551 | 70 | 24 | 0.0 | 0.0 | 0.00 | 0.00 | 0.00 | 94 | 1019.6 |
| 20260831083047 | 70 | 24 | 0.0 | 0.0 | 0.00 | 0.00 | 0.00 | 94 | 1019.5 |
| 20260831081555 | 70 | 24 | 0.0 | 0.0 | 0.00 | 0.00 | 0.00 | 94 | 1019.4 |
| 20260831080041 | 70 | 24 | 0.0 | 0.0 | 0.00 | 0.00 | 0.00 | 93 | 1019.2 |
| 20260831074544 | 70 | 24 | 0.0 | 0.0 | 0.00 | 0.00 | 0.00 | 93 | 1019.1 |
| 20260831073102 | 70 | 24 | 0.0 | 0.0 | 0.00 | 0.00 | 0.00 | 94 | 1019.2 |
| 20260831071535 | 71 | 24 | 0.0 | 0.0 | 0.00 | 0.00 | 0.00 | 93 | 1019.4 |
| 20260831070035 | 71 | 24 | 0.0 | 0.0 | 0.00 | 0.00 | 0.00 | 93 | 1019.6 |
| 20260831064539 | 71 | 24 | 0.0 | 0.0 | 0.00 | 0.00 | 0.00 | 93 | 1019.6 |
| 20260831063031 | 71 | 24 | 0.0 | 0.0 | 0.00 | 0.00 | 0.00 | 93 | 1019.7 |
| 20260831061537 | 71 | 24 | 0.0 | 0.0 | 0.00 | 0.00 | 0.00 | 92 | 1019.8 |
| 20260831060030 | 71 | 24 | 0.0 | 0.0 | 0.00 | 0.00 | 0.00 | 92 | 1019.8 |
| 20260831054529 | 72 | 24 | 0.0 | 0.0 | 0.00 | 0.00 | 0.00 | 92 | 1019.8 |
| 20260831053033 | 72 | 24 | 0.0 | 0.0 | 0.00 | 0.00 | 0.00 | 92 | 1019.8 |
| 20260831051527 | 72 | 24 | 0.0 | 0.0 | 0.00 | 0.00 | 0.00 | 92 | 1020.0 |
| 20260831050038 | 72 | 24 | 0.0 | 0.0 | 0.00 | 0.00 | 0.00 | 92 | 1020.1 |
| 20260831044523 | 73 | 24 | 0.0 | 0.0 | 0.00 | 0.00 | 0.00 | 92 | 1020.1 |
| 20260831043024 | 73 | 24 | 0.0 | 0.0 | 0.00 | 0.00 | 0.00 | 92 | 1020.2 |
| 20260831041520 | 73 | 24 | 0.0 | 0.0 | 0.00 | 0.00 | 0.00 | 91 | 1020.1 |
| 20260831040038 | 73 | 24 | 0.0 | 0.0 | 0.00 | 0.00 | 0.00 | 91 | 1020.1 |
| 20260831034515 | 74 | 24 | 0.0 | 0.0 | 0.00 | 0.00 | 0.00 | 91 | 1020.0 |
| 20260831033018 | 74 | 24 | 0.0 | 0.0 | 0.00 | 0.00 | 0.00 | 90 | 1020.1 |
| 20260831031514 | 74 | 24 | 0.0 | 0.0 | 0.00 | 0.00 | 0.00 | 90 | 1020.2 |
| 20260831030027 | 75 | 24 | 0.0 | 0.0 | 0.00 | 0.00 | 0.00 | 90 | 1020.0 |
| 20260831024516 | 75 | 24 | 0.0 | 0.0 | 0.00 | 0.00 | 0.00 | 89 | 1020.0 |
| 20260831023012 | 75 | 24 | 0.0 | 0.0 | 0.00 | 0.00 | 0.00 | 89 | 1019.9 |
| 20260831021513 | 76 | 24 | 0.0 | 0.0 | 0.00 | 0.00 | 0.00 | 88 | 1020.1 |
| 20260831020012 | 76 | 24 | 0.0 | 0.0 | 0.00 | 0.00 | 0.00 | 87 | 1020.0 |
| 20260831014511 | 77 | 24 | 0.0 | 0.0 | 0.00 | 0.00 | 0.00 | 87 | 1019.9 |
| 20260831013011 | 77 | 24 | 0.0 | 0.0 | 0.00 | 0.00 | 0.00 | 86 | 1020.0 |
| 20260831011510 | 78 | 24 | 0.0 | 0.0 | 0.00 | 0.00 | 0.00 | 85 | 1019.9 |
| 20260831010010 | 79 | 24 | 0.0 | 0.0 | 0.00 | 0.00 | 0.00 | 84 | 1019.8 |
| 20260831004514 | 80 | 24 | 0.0 | 0.0 | 0.00 | 0.00 | 0.00 | 84 | 1019.6 |
| 20260831003010 | 80 | 24 | 0.0 | 0.0 | 0.00 | 0.00 | 0.00 | 83 | 1019.7 |
| 20260831001509 | 81 | 24 | 0.0 | 0.0 | 0.00 | 0.00 | 0.00 | 82 | 1019.4 |
| 20260831000008 | 81 | 24 | 0.0 | 0.0 | 0.00 | 0.00 | 0.00 | 81 | 1019.4 |
| 20260830234614 | 81 | 24 | 0.0 | 0.9 | 0.00 | 0.00 | 0.00 | 82 | 1019.3 |
| 20260830233014 | 82 | 347 | 0.0 | 1.7 | 0.00 | 0.00 | 0.00 | 81 | 1019.1 |
| 20260830231505 | 83 | 347 | 0.0 | 1.7 | 0.00 | 0.00 | 0.00 | 79 | 1019.1 |
| 20260830230005 | 82 | 347 | 0.0 | 1.7 | 0.00 | 0.00 | 0.00 | 78 | 1019.2 |
| 20260830224505 | 84 | 347 | 0.0 | 3.5 | 0.00 | 0.00 | 0.00 | 78 | 1019.2 |
| 20260830223004 | 85 | 347 | 0.0 | 2.6 | 0.00 | 0.00 | 0.00 | 73 | 1019.1 |
| 20260830221503 | 85 | 350 | 0.9 | 1.7 | 0.00 | 0.00 | 0.00 | 72 | 1019.0 |
| 20260830220008 | 85 | 351 | 0.0 | 0.9 | 0.00 | 0.00 | 0.00 | 73 | 1019.0 |
| 20260830214502 | 86 | 355 | 0.0 | 3.5 | 0.00 | 0.00 | 0.00 | 70 | 1019.0 |
| 20260830213001 | 88 | 355 | 0.9 | 3.5 | 0.00 | 0.00 | 0.00 | 67 | 1019.0 |
| 20260830211600 | 88 | 19 | 0.0 | 3.5 | 0.00 | 0.00 | 0.00 | 67 | 1019.1 |
| 20260830210059 | 88 | 21 | 0.0 | 5.2 | 0.00 | 0.00 | 0.00 | 69 | 1019.2 |
| 20260830204605 | 86 | 314 | 0.9 | 3.5 | 0.00 | 0.00 | 0.00 | 71 | 1019.4 |
| 20260830203056 | 88 | 299 | 0.9 | 3.5 | 0.00 | 0.00 | 0.00 | 69 | 1020.1 |
| 20260830201606 | 84 | 283 | 0.0 | 1.7 | 0.00 | 0.00 | 0.00 | 73 | 1019.5 |
| 20260830194553 | 87 | 283 | 0.0 | 3.5 | 0.00 | 0.00 | 0.00 | 68 | 1019.8 |
| 20260830193049 | 87 | 279 | 0.0 | 3.5 | 0.00 | 0.00 | 0.00 | 67 | 1019.9 |
| 20260830191617 | 87 | 320 | 0.9 | 5.2 | 0.00 | 0.00 | 0.00 | 68 | 1020.2 |
| 20260830190104 | 85 | 319 | 0.0 | 2.6 | 0.00 | 0.00 | 0.00 | 71 | 1020.2 |
| 20260830184545 | 87 | 318 | 0.9 | 3.5 | 0.00 | 0.00 | 0.00 | 68 | 1020.4 |
| 20260830183043 | 85 | 307 | 2.6 | 5.2 | 0.00 | 0.00 | 0.00 | 69 | 1020.6 |